Time,TemperatureF,DewpointF,PressureIn,WindDirection,WindDirectionDegrees,WindSpeedMPH,WindSpeedGustMPH,Humidity,HourlyPrecipIn,Conditions,Clouds,dailyrainin,SoftwareType,DateUTC
2013-06-20 00:02:00,70.0,58.0,30.09,SE,142,1.0,3.0,65,0.00,,,0.00,,2013-06-20 04:02:00,
2013-06-20 00:11:00,71.0,58.0,30.09,ENE,75,0.0,3.0,64,0.00,,,0.00,,2013-06-20 04:11:00,
2013-06-20 00:22:00,71.0,58.0,30.09,ENE,75,0.0,3.0,64,0.00,,,0.00,,2013-06-20 04:22:00,
2013-06-20 00:34:00,71.0,58.0,30.09,ESE,117,0.0,3.0,63,0.00,,,0.00,,2013-06-20 04:34:00,
2013-06-20 00:43:00,70.0,57.0,30.09,East,101,1.0,4.0,64,0.00,,,0.00,,2013-06-20 04:43:00,
2013-06-20 00:53:00,70.0,57.0,30.09,East,101,1.0,4.0,64,0.00,,,0.00,,2013-06-20 04:53:00,
2013-06-20 01:02:00,70.0,57.0,30.09,East,80,1.0,3.0,64,0.00,,,0.00,,2013-06-20 05:02:00,
2013-06-20 01:12:00,70.0,58.0,30.09,SE,126,1.0,4.0,65,0.00,,,0.00,,2013-06-20 05:12:00,
2013-06-20 01:22:00,70.0,58.0,30.09,SE,126,1.0,4.0,65,0.00,,,0.00,,2013-06-20 05:22:00,
2013-06-20 01:33:00,70.0,58.0,30.09,SE,135,1.0,5.0,66,0.00,,,0.00,,2013-06-20 05:33:00,
2013-06-20 01:44:00,70.0,59.0,30.10,ESE,119,1.0,4.0,67,0.00,,,0.00,,2013-06-20 05:44:00,
2013-06-20 01:52:00,70.0,59.0,30.10,ESE,119,1.0,4.0,67,0.00,,,0.00,,2013-06-20 05:52:00,
2013-06-20 02:02:00,70.0,59.0,30.10,SE,128,0.0,4.0,68,0.00,,,0.00,,2013-06-20 06:02:00,
2013-06-20 02:11:00,70.0,59.0,30.10,ESE,120,0.0,4.0,67,0.00,,,0.00,,2013-06-20 06:11:00,
2013-06-20 02:22:00,70.0,59.0,30.10,ESE,120,0.0,4.0,67,0.00,,,0.00,,2013-06-20 06:22:00,
2013-06-20 02:33:00,69.0,58.0,30.10,SE,138,0.0,3.0,67,0.00,,,0.00,,2013-06-20 06:33:00,
2013-06-20 02:43:00,69.0,58.0,30.10,SE,129,1.0,3.0,67,0.00,,,0.00,,2013-06-20 06:43:00,
2013-06-20 02:53:00,69.0,58.0,30.10,SE,129,1.0,3.0,67,0.00,,,0.00,,2013-06-20 06:53:00,
2013-06-20 03:01:00,69.0,58.0,30.10,ESE,112,0.0,3.0,68,0.00,,,0.00,,2013-06-20 07:01:00,
2013-06-20 03:12:00,69.0,58.0,30.10,ESE,119,0.0,4.0,68,0.00,,,0.00,,2013-06-20 07:12:00,
2013-06-20 03:22:00,69.0,58.0,30.10,ESE,119,0.0,4.0,68,0.00,,,0.00,,2013-06-20 07:22:00,
2013-06-20 03:34:00,68.0,57.0,30.10,ESE,119,1.0,4.0,68,0.00,,,0.00,,2013-06-20 07:34:00,
2013-06-20 03:44:00,68.0,57.0,30.10,East,97,1.0,5.0,68,0.00,,,0.00,,2013-06-20 07:44:00,
2013-06-20 03:52:00,68.0,57.0,30.10,East,97,1.0,5.0,68,0.00,,,0.00,,2013-06-20 07:52:00,
2013-06-20 04:02:00,68.0,57.0,30.10,SE,139,0.0,4.0,68,0.00,,,0.00,,2013-06-20 08:02:00,
2013-06-20 04:11:00,68.0,57.0,30.10,East,92,1.0,3.0,68,0.00,,,0.00,,2013-06-20 08:11:00,
2013-06-20 04:22:00,68.0,57.0,30.10,East,92,1.0,3.0,68,0.00,,,0.00,,2013-06-20 08:22:00,
2013-06-20 04:34:00,68.0,57.0,30.10,SE,136,0.0,3.0,68,0.00,,,0.00,,2013-06-20 08:34:00,
2013-06-20 04:43:00,68.0,58.0,30.10,SE,138,0.0,2.0,71,0.00,,,0.00,,2013-06-20 08:43:00,
2013-06-20 04:53:00,68.0,58.0,30.10,SE,138,0.0,2.0,71,0.00,,,0.00,,2013-06-20 08:53:00,
2013-06-20 05:02:00,68.0,57.0,30.10,SE,132,0.0,4.0,69,0.00,,,0.00,,2013-06-20 09:02:00,
2013-06-20 05:12:00,68.0,58.0,30.10,ESE,119,0.0,3.0,70,0.00,,,0.00,,2013-06-20 09:12:00,
2013-06-20 05:22:00,68.0,58.0,30.10,ESE,119,0.0,3.0,70,0.00,,,0.00,,2013-06-20 09:22:00,
2013-06-20 05:33:00,68.0,57.0,30.11,ESE,118,0.0,4.0,68,0.00,,,0.00,,2013-06-20 09:33:00,
2013-06-20 05:42:00,68.0,57.0,30.11,ESE,118,0.0,4.0,68,0.00,,,0.00,,2013-06-20 09:42:00,
2013-06-20 05:52:00,68.0,57.0,30.11,ESE,118,0.0,4.0,68,0.00,,,0.00,,2013-06-20 09:52:00,
2013-06-20 06:01:00,68.0,58.0,30.11,SE,142,0.0,3.0,71,0.00,,,0.00,,2013-06-20 10:01:00,
2013-06-20 06:11:00,67.0,57.0,30.11,SE,138,0.0,3.0,71,0.00,,,0.00,,2013-06-20 10:11:00,
2013-06-20 06:22:00,67.0,57.0,30.11,SE,138,0.0,3.0,71,0.00,,,0.00,,2013-06-20 10:22:00,
2013-06-20 06:34:00,67.0,58.0,30.11,SE,145,1.0,4.0,72,0.00,,,0.00,,2013-06-20 10:34:00,
2013-06-20 06:43:00,66.0,57.0,30.11,ESE,121,0.0,3.0,74,0.00,,,0.00,,2013-06-20 10:43:00,
2013-06-20 06:53:00,66.0,57.0,30.11,ESE,121,0.0,3.0,74,0.00,,,0.00,,2013-06-20 10:53:00,
2013-06-20 07:02:00,66.0,58.0,30.11,SE,133,0.0,2.0,75,0.00,,,0.00,,2013-06-20 11:02:00,
2013-06-20 07:12:00,66.0,59.0,30.12,SE,146,0.0,2.0,78,0.00,,,0.00,,2013-06-20 11:12:00,
2013-06-20 07:22:00,66.0,59.0,30.12,SE,146,0.0,2.0,78,0.00,,,0.00,,2013-06-20 11:22:00,
2013-06-20 07:34:00,66.0,59.0,30.12,SE,140,0.0,2.0,78,0.00,,,0.00,,2013-06-20 11:34:00,
2013-06-20 07:42:00,66.0,59.0,30.12,ESE,122,0.0,2.0,78,0.00,,,0.00,,2013-06-20 11:42:00,
2013-06-20 07:53:00,66.0,59.0,30.12,ESE,122,0.0,2.0,78,0.00,,,0.00,,2013-06-20 11:53:00,
2013-06-20 08:02:00,67.0,59.0,30.13,SE,140,1.0,4.0,76,0.00,,,0.00,,2013-06-20 12:02:00,
2013-06-20 08:11:00,68.0,61.0,30.13,SE,136,0.0,2.0,77,0.00,,,0.00,,2013-06-20 12:11:00,
2013-06-20 08:22:00,68.0,61.0,30.13,SE,136,0.0,2.0,77,0.00,,,0.00,,2013-06-20 12:22:00,
2013-06-20 08:34:00,69.0,61.0,30.13,SSE,153,0.0,4.0,76,0.00,,,0.00,,2013-06-20 12:34:00,
2013-06-20 08:43:00,69.0,61.0,30.13,South,175,0.0,5.0,75,0.00,,,0.00,,2013-06-20 12:43:00,
2013-06-20 08:53:00,69.0,61.0,30.13,South,175,0.0,5.0,75,0.00,,,0.00,,2013-06-20 12:53:00,
2013-06-20 09:02:00,69.0,61.0,30.14,South,190,0.0,3.0,76,0.00,,,0.00,,2013-06-20 13:02:00,
2013-06-20 09:11:00,70.0,62.0,30.14,SSE,167,0.0,4.0,76,0.00,,,0.00,,2013-06-20 13:11:00,
2013-06-20 09:22:00,70.0,62.0,30.14,SSE,167,0.0,4.0,76,0.00,,,0.00,,2013-06-20 13:22:00,
2013-06-20 09:33:00,72.0,63.0,30.15,SSW,205,1.0,5.0,74,0.00,,,0.00,,2013-06-20 13:33:00,
2013-06-20 09:42:00,74.0,64.0,30.15,South,186,1.0,4.0,72,0.00,,,0.00,,2013-06-20 13:42:00,
2013-06-20 09:53:00,74.0,64.0,30.15,South,186,1.0,4.0,72,0.00,,,0.00,,2013-06-20 13:53:00,
2013-06-20 10:02:00,74.0,64.0,30.15,South,186,1.0,4.0,72,0.00,,,0.00,,2013-06-20 14:02:00,
2013-06-20 10:11:00,75.0,64.0,30.15,SW,214,2.0,6.0,68,0.00,,,0.00,,2013-06-20 14:11:00,
2013-06-20 10:22:00,75.0,64.0,30.15,SW,214,2.0,6.0,68,0.00,,,0.00,,2013-06-20 14:22:00,
2013-06-20 10:32:00,76.0,65.0,30.15,SSW,202,3.0,10.0,68,0.00,,,0.00,,2013-06-20 14:32:00,
2013-06-20 10:42:00,76.0,64.0,30.14,SSW,205,2.0,7.0,66,0.00,,,0.00,,2013-06-20 14:42:00,
2013-06-20 10:53:00,76.0,64.0,30.14,SSW,205,2.0,7.0,66,0.00,,,0.00,,2013-06-20 14:53:00,
2013-06-20 11:02:00,77.0,65.0,30.15,West,269,1.0,6.0,67,0.00,,,0.00,,2013-06-20 15:02:00,
2013-06-20 11:11:00,77.0,64.0,30.15,South,180,3.0,8.0,65,0.00,,,0.00,,2013-06-20 15:11:00,
2013-06-20 11:22:00,77.0,64.0,30.15,South,180,3.0,8.0,65,0.00,,,0.00,,2013-06-20 15:22:00,
2013-06-20 11:33:00,79.0,66.0,30.15,South,176,2.0,7.0,65,0.00,,,0.00,,2013-06-20 15:33:00,
2013-06-20 11:43:00,79.0,65.0,30.15,WSW,258,2.0,8.0,63,0.00,,,0.00,,2013-06-20 15:43:00,
2013-06-20 11:53:00,79.0,65.0,30.15,WSW,258,2.0,8.0,63,0.00,,,0.00,,2013-06-20 15:53:00,
2013-06-20 12:01:00,80.0,67.0,30.15,SSW,196,3.0,9.0,64,0.00,,,0.00,,2013-06-20 16:01:00,
2013-06-20 12:11:00,80.0,66.0,30.14,WNW,291,3.0,6.0,62,0.00,,,0.00,,2013-06-20 16:11:00,
2013-06-20 12:22:00,80.0,66.0,30.14,WNW,291,3.0,6.0,62,0.00,,,0.00,,2013-06-20 16:22:00,
2013-06-20 12:33:00,81.0,65.0,30.14,SW,229,1.0,5.0,59,0.00,,,0.00,,2013-06-20 16:33:00,
2013-06-20 12:42:00,82.0,65.0,30.14,WSW,238,1.0,7.0,57,0.00,,,0.00,,2013-06-20 16:42:00,
2013-06-20 12:52:00,82.0,65.0,30.14,WSW,238,1.0,7.0,57,0.00,,,0.00,,2013-06-20 16:52:00,
2013-06-20 13:02:00,83.0,67.0,30.14,SSW,205,1.0,7.0,59,0.00,,,0.00,,2013-06-20 17:02:00,
2013-06-20 13:11:00,83.0,65.0,30.14,South,173,3.0,5.0,54,0.00,,,0.00,,2013-06-20 17:11:00,
2013-06-20 13:22:00,83.0,65.0,30.14,South,173,3.0,5.0,54,0.00,,,0.00,,2013-06-20 17:22:00,
2013-06-20 13:32:00,82.0,67.0,30.13,WNW,286,1.0,7.0,60,0.00,,,0.00,,2013-06-20 17:32:00,
2013-06-20 13:43:00,82.0,64.0,30.13,SSE,161,1.0,4.0,54,0.00,,,0.00,,2013-06-20 17:43:00,
2013-06-20 13:53:00,82.0,64.0,30.13,SSE,161,1.0,4.0,54,0.00,,,0.00,,2013-06-20 17:53:00,
2013-06-20 14:01:00,83.0,65.0,30.12,WSW,238,1.0,7.0,54,0.00,,,0.00,,2013-06-20 18:01:00,
2013-06-20 14:11:00,83.0,65.0,30.12,WSW,238,1.0,7.0,54,0.00,,,0.00,,2013-06-20 18:11:00,
2013-06-20 14:22:00,83.0,65.0,30.12,SW,221,2.0,7.0,55,0.00,,,0.00,,2013-06-20 18:22:00,
2013-06-20 14:33:00,84.0,64.0,30.12,SE,137,1.0,7.0,51,0.00,,,0.00,,2013-06-20 18:33:00,
2013-06-20 14:43:00,84.0,64.0,30.12,SE,137,1.0,7.0,51,0.00,,,0.00,,2013-06-20 18:43:00,
2013-06-20 14:53:00,85.0,65.0,30.12,SSW,194,2.0,7.0,51,0.00,,,0.00,,2013-06-20 18:53:00,
2013-06-20 15:01:00,85.0,64.0,30.12,SSW,211,3.0,6.0,49,0.00,,,0.00,,2013-06-20 19:01:00,
2013-06-20 15:11:00,85.0,64.0,30.12,SSW,211,3.0,6.0,49,0.00,,,0.00,,2013-06-20 19:11:00,
2013-06-20 15:22:00,86.0,66.0,30.12,South,178,1.0,5.0,51,0.00,,,0.00,,2013-06-20 19:22:00,
2013-06-20 15:34:00,86.0,67.0,30.11,SSW,209,0.0,7.0,53,0.00,,,0.00,,2013-06-20 19:34:00,
2013-06-20 15:43:00,86.0,67.0,30.11,SSW,209,0.0,7.0,53,0.00,,,0.00,,2013-06-20 19:43:00,
2013-06-20 15:52:00,86.0,65.0,30.11,SW,219,3.0,7.0,49,0.00,,,0.00,,2013-06-20 19:52:00,
2013-06-20 16:02:00,86.0,62.0,30.11,South,176,1.0,6.0,45,0.00,,,0.00,,2013-06-20 20:02:00,
2013-06-20 16:11:00,86.0,62.0,30.11,South,176,1.0,6.0,45,0.00,,,0.00,,2013-06-20 20:11:00,
2013-06-20 16:22:00,87.0,64.0,30.11,West,262,1.0,6.0,46,0.00,,,0.00,,2013-06-20 20:22:00,
2013-06-20 16:33:00,87.0,65.0,30.10,WSW,251,1.0,6.0,48,0.00,,,0.00,,2013-06-20 20:33:00,
2013-06-20 16:42:00,87.0,65.0,30.10,WSW,251,1.0,6.0,48,0.00,,,0.00,,2013-06-20 20:42:00,
2013-06-20 16:52:00,87.0,64.0,30.10,South,190,1.0,7.0,47,0.00,,,0.00,,2013-06-20 20:52:00,
2013-06-20 17:01:00,87.0,63.0,30.10,WSW,244,3.0,8.0,45,0.00,,,0.00,,2013-06-20 21:01:00,